Weather History for Sheridan, WY

Change the Weather History Date:

Tuesday, January 15, 2013

  Actual Average Record
Temperature  
Mean Temperature 26 °F 24 °F  
Max Temperature 36 °F 36 °F 70 °F (1974)
Min Temperature 15 °F 11 °F -25 °F (1930)
Degree Days  
Heating Degree Days 39 41  
Month to date heating degree days 659 624  
Since 1 July heating degree days 3614 3807  
Cooling Degree Days 0 0  
Month to date cooling degree days 0 0  
Year to date cooling degree days 0 0  
Moisture  
Dew Point 21 °F    
Average Humidity 77    
Maximum Humidity 92    
Minimum Humidity 61    
Precipitation  
Precipitation T in 0.02 in 0.37 in (1995)
Month to date precipitation 0.02 0.25  
Year to date precipitation 0.02 0.25  
Sea Level Pressure  
Sea Level Pressure 30.08 in    
Wind  
Wind Speed 5 mph (SW)    
Max Wind Speed 17 mph    
Max Gust Speed 20 mph    
Visibility 8 miles    
Events Snow    
T = Trace of Precipitation, MM = Missing Value Source: NWS Daily Summary

Daily Weather History Graph

Daily Weather History Graph

Search for Another Location

Airport:

Trip Planner

Search our weather history database for the weather conditions in past years. The results will help you decide how hot, cold, wet, or windy it might be!

Date:

Astronomy

Jan. 15, 2013 Rise Set
Actual Time 7:41 AM MST 4:53 PM MST
Civil Twilight 7:09 AM MST 5:26 PM MST
Nautical Twilight 6:32 AM MST 6:02 PM MST
Astronomical Twilight 5:57 AM MST 6:37 PM MST
Moon 9:35 AM MST (1/15) 10:01 PM MST (1/15)
Length of Visible Light 10h 17m
Length of Day
9h 12m
Waxing Crescent, 20% of the Moon is Illuminated
Jan 15
Waxing Crescent
Jan 18
First Quarter
Jan 26
Full
Feb 3
Last Quarter
Feb 10
New

Hourly Weather History & Observations

Time (MST) Temp. Windchill Dew Point Humidity Pressure Visibility Wind Dir Wind Speed Gust Speed Precip Events Conditions
12:53 AM 18.0 °F - 8.1 °F 65% 30.12 in 10.0 mi Calm Calm - N/A   Overcast
1:53 AM 17.6 °F 12.3 °F 8.6 °F 68% 29.95 in 10.0 mi South 3.5 mph - N/A   Overcast
2:53 AM 19.9 °F 13.4 °F 12.0 °F 71% 30.12 in 10.0 mi NNE 4.6 mph - N/A   Overcast
3:53 AM 19.0 °F - 12.9 °F 77% 30.12 in 10.0 mi Calm Calm - N/A   Overcast
4:09 AM 19.4 °F - 12.2 °F 74% 29.95 in 4.0 mi Calm Calm - 0.00 in Snow Light Snow
4:25 AM 17.6 °F - 12.2 °F 79% 29.95 in 2.0 mi Calm Calm - 0.00 in Snow Light Snow
4:53 AM 19.4 °F 14.3 °F 15.8 °F 86% 29.94 in 2.0 mi SSW 3.5 mph - N/A Snow Light Snow
5:11 AM 19.4 °F 12.8 °F 15.8 °F 86% 29.94 in 1.8 mi South 4.6 mph - 0.00 in Snow Light Snow
5:27 AM 19.4 °F 11.5 °F 17.6 °F 93% 29.95 in 1.8 mi South 5.8 mph - 0.01 in Snow Light Snow
5:51 AM 19.4 °F 10.4 °F 17.6 °F 93% 29.96 in 2.5 mi South 6.9 mph - 0.02 in Snow Light Snow
5:53 AM 19.9 °F 12.1 °F 18.0 °F 92% 30.14 in 3.0 mi South 5.8 mph - 0.02 in Snow Light Snow
6:36 AM 21.2 °F 13.6 °F 19.4 °F 93% 29.96 in 8.0 mi SSW 5.8 mph - 0.00 in Snow Light Snow
6:53 AM 21.9 °F - 19.0 °F 89% 30.14 in 8.0 mi Calm Calm - 0.00 in Snow Light Snow
7:53 AM 23.0 °F - 19.9 °F 88% 30.15 in 5.0 mi Calm Calm - 0.00 in Snow Light Snow
8:53 AM 25.0 °F 18.1 °F 21.9 °F 88% 30.16 in 10.0 mi South 5.8 mph - 0.00 in Snow Light Snow
9:53 AM 28.0 °F 20.0 °F 25.0 °F 88% 30.13 in 10.0 mi SSW 8.1 mph - 0.00 in   Overcast
10:53 AM 32.0 °F - 27.0 °F 82% 30.12 in 10.0 mi Calm Calm - N/A   Overcast
11:53 AM 35.1 °F - 28.9 °F 78% 30.09 in 10.0 mi Calm Calm - N/A   Overcast
12:53 PM 36.0 °F 32.1 °F 28.0 °F 73% 30.08 in 10.0 mi West 4.6 mph - N/A   Overcast
1:53 PM 34.0 °F 25.0 °F 25.0 °F 70% 30.09 in 10.0 mi NW 12.7 mph - N/A   Overcast
2:53 PM 35.1 °F 28.6 °F 26.1 °F 70% 30.10 in 10.0 mi NW 8.1 mph - N/A   Overcast
3:53 PM 35.1 °F 29.3 °F 26.1 °F 70% 30.12 in 10.0 mi WSW 6.9 mph - N/A   Overcast
4:53 PM 35.1 °F 27.9 °F 25.0 °F 67% 30.14 in 10.0 mi WNW 9.2 mph - N/A   Overcast
5:53 PM 35.1 °F - 27.0 °F 72% 30.13 in 10.0 mi Calm Calm - N/A   Overcast
6:53 PM 36.0 °F 31.1 °F 28.0 °F 73% 30.15 in 10.0 mi SSE 5.8 mph - N/A   Overcast
7:53 PM 34.0 °F - 25.0 °F 70% 30.14 in 10.0 mi Calm Calm - N/A   Overcast
8:53 PM 32.0 °F 24.8 °F 23.0 °F 69% 30.14 in 10.0 mi WNW 8.1 mph - N/A   Overcast
9:53 PM 32.0 °F 24.8 °F 23.0 °F 69% 30.13 in 10.0 mi West 8.1 mph - N/A   Scattered Clouds
10:53 PM 34.0 °F 25.0 °F 24.1 °F 67% 30.11 in 10.0 mi West 12.7 mph - N/A   Overcast
11:53 PM 33.1 °F 24.4 °F 21.9 °F 64% 30.11 in 10.0 mi West 11.5 mph - N/A   Mostly Cloudy